FW8253 Weather Reports


Display with metric or nautical units.
time (UTC)temp
F
wind
direction
speed
MPH
gust
MPH
rain 1hr
in
rain 24hr
in
rain mn
in
humidity
%
barometer
mb
20260831073159 72 235 0.0 0.0 0.00 0.00 0.00 99 1020.3
20260831072655 71 235 0.0 0.0 0.00 0.00 0.00 99 1020.1
20260831072151 71 235 0.0 0.0 0.00 0.00 0.00 99 1020.2
20260831071650 72 235 0.0 0.0 0.00 0.00 0.00 99 1019.9
20260831071144 72 235 0.0 0.0 0.00 0.00 0.00 99 1020.3
20260831070639 72 235 0.0 0.0 0.00 0.00 0.00 99 1020.2
20260831070133 72 235 0.0 0.0 0.00 0.00 0.00 99 1020.4
20260831065632 72 235 0.0 0.0 0.00 0.00 0.00 99 1020.5
20260831065131 72 235 0.0 0.0 0.00 0.00 0.00 99 1020.6
20260831064626 72 235 0.0 0.0 0.00 0.00 0.00 99 1020.5
20260831064121 72 235 0.0 0.0 0.00 0.00 0.00 99 1020.4
20260831063617 72 235 0.0 0.0 0.00 0.00 0.00 99 1020.6
20260831063112 72 235 0.0 0.0 0.00 0.00 0.00 99 1020.7
20260831062607 72 235 0.0 0.0 0.00 0.00 0.00 99 1020.7
20260831062107 72 235 0.0 0.0 0.00 0.00 0.00 99 1020.5
20260831061604 72 235 0.0 0.0 0.00 0.00 0.00 99 1020.7
20260831061101 72 235 0.0 0.0 0.00 0.00 0.00 99 1020.8
20260831060556 72 235 0.0 0.0 0.00 0.00 0.00 99 1020.8
20260831060051 72 235 0.0 0.0 0.00 0.00 0.00 99 1020.8
20260831055545 72 235 0.0 0.0 0.00 0.00 0.00 99 1021.0
20260831055041 72 235 0.0 0.0 0.00 0.00 0.00 99 1020.9
20260831054540 72 235 0.0 0.0 0.00 0.00 0.00 99 1020.8
20260831054040 72 235 0.0 0.0 0.00 0.00 0.00 99 1020.8
20260831053538 72 234 0.0 0.0 0.00 0.00 0.00 99 1020.7
20260831053033 72 234 0.0 0.0 0.00 0.00 0.00 99 1020.6
20260831052532 72 234 0.0 0.0 0.00 0.00 0.00 99 1020.7
20260831052026 72 234 0.0 0.0 0.00 0.00 0.00 99 1020.6
20260831051524 72 234 0.0 0.0 0.00 0.00 0.00 99 1020.8
20260831051024 73 234 0.0 0.0 0.00 0.00 0.00 99 1020.7
20260831050523 73 234 0.0 0.0 0.00 0.00 0.00 99 1020.6
20260831050022 73 234 0.0 0.0 0.00 0.00 0.00 99 1020.8
20260831045521 73 234 0.0 0.0 0.00 0.00 0.00 99 1020.8
20260831045017 73 234 0.0 0.0 0.00 0.00 0.00 99 1021.0
20260831044512 73 234 0.0 0.0 0.00 0.00 0.00 99 1020.9
20260831044008 73 234 0.0 0.0 0.00 0.00 0.00 99 1020.8
20260831043507 73 234 0.0 0.0 0.00 0.00 0.00 99 1021.1
20260831043002 73 234 0.0 0.0 0.00 0.00 0.00 99 1020.9
20260831042457 73 234 0.0 0.0 0.00 0.00 0.00 99 1020.9
20260831041956 73 234 0.0 0.0 0.00 0.00 0.00 99 1020.9
20260831041451 73 229 0.0 0.0 0.00 0.00 0.00 99 1021.0
20260831040946 73 229 0.0 0.0 0.00 0.00 0.00 98 1021.1
20260831040441 73 224 0.0 0.0 0.00 0.00 0.00 98 1021.1
20260831035938 73 224 0.0 0.0 0.00 0.00 0.00 98 1021.3
20260831035437 74 224 0.0 0.0 0.00 0.00 0.00 98 1021.1
20260831034932 74 224 0.0 0.0 0.00 0.00 0.00 98 1021.0
20260831034427 74 220 0.0 0.0 0.00 0.00 0.00 98 1021.2
20260831033923 74 232 0.0 0.0 0.00 0.00 0.00 98 1021.0
20260831033418 74 231 0.0 0.0 0.00 0.00 0.00 98 1021.0
20260831032914 74 231 0.0 0.0 0.00 0.00 0.00 97 1020.9
20260831032408 74 231 0.0 0.0 0.00 0.00 0.00 97 1021.0
20260831031903 74 231 0.0 0.0 0.00 0.00 0.00 97 1021.1
20260831031402 74 231 0.0 0.0 0.00 0.00 0.00 97 1021.1
20260831030857 75 231 0.0 0.0 0.00 0.00 0.00 96 1021.2
20260831030356 75 231 0.0 0.0 0.00 0.00 0.00 96 1021.1
20260831025854 75 231 0.0 0.0 0.00 0.00 0.00 96 1021.3
20260831025349 75 225 0.0 0.0 0.00 0.00 0.00 95 1021.5
20260831024845 75 221 0.0 0.0 0.00 0.00 0.00 95 1021.3
20260831024344 75 229 0.0 0.0 0.00 0.00 0.00 95 1021.3
20260831023843 75 180 0.0 0.0 0.00 0.00 0.00 95 1021.0
20260831023341 75 179 0.0 0.0 0.00 0.00 0.00 95 1021.0
20260831022837 75 190 0.0 0.0 0.00 0.00 0.00 95 1020.9
20260831022336 76 244 0.0 0.0 0.00 0.00 0.00 95 1021.0
20260831021831 76 236 0.0 0.0 0.00 0.00 0.00 94 1020.8
20260831021330 76 236 0.0 0.0 0.00 0.00 0.00 94 1021.0
20260831020826 76 236 0.0 0.0 0.00 0.00 0.00 93 1020.7
20260831020321 77 236 0.0 0.0 0.00 0.00 0.00 92 1020.9
20260831015816 77 236 0.0 0.0 0.00 0.00 0.00 91 1020.8
20260831015312 77 236 0.0 0.0 0.00 0.00 0.00 91 1020.7
20260831014811 77 174 0.0 0.0 0.00 0.00 0.00 90 1020.9
20260831014306 77 174 0.0 0.0 0.00 0.00 0.00 90 1020.8
20260831013803 78 174 0.0 0.0 0.00 0.00 0.00 89 1020.9
20260831013302 78 175 0.0 0.0 0.00 0.00 0.00 89 1020.7
20260831012757 78 187 0.0 0.0 0.00 0.00 0.00 89 1021.0
20260831012253 78 187 0.0 0.0 0.00 0.00 0.00 89 1020.6
20260831011751 78 187 0.0 0.0 0.00 0.00 0.00 88 1020.4
20260831011247 78 187 0.0 0.0 0.00 0.00 0.00 88 1020.5
20260831010743 79 187 0.0 0.0 0.00 0.00 0.00 88 1020.6
20260831010237 79 187 0.0 0.0 0.00 0.00 0.00 87 1020.4
20260831005732 79 186 0.0 0.0 0.00 0.00 0.00 86 1020.4
20260831005228 80 186 0.0 0.0 0.00 0.00 0.00 86 1020.3
20260831004723 80 185 0.0 0.0 0.00 0.00 0.00 85 1020.2
20260831004219 80 189 0.0 0.0 0.00 0.00 0.00 84 1020.4
20260831003715 80 189 0.0 0.0 0.00 0.00 0.00 84 1020.4
20260831003211 81 184 0.0 0.0 0.00 0.00 0.00 83 1020.2
20260831002709 81 201 0.0 0.0 0.00 0.00 0.00 82 1020.3
20260831002204 82 223 0.0 0.0 0.00 0.00 0.00 82 1020.3
20260831001701 82 172 0.0 0.0 0.00 0.00 0.00 81 1020.0
20260831001200 82 219 0.0 0.0 0.00 0.00 0.00 81 1020.0
20260831000657 83 211 0.0 0.0 0.00 0.00 0.00 81 1020.2
20260831000152 83 234 0.0 0.0 0.00 0.00 0.00 81 1020.3
20260830235650 84 180 0.0 0.0 0.00 0.00 0.00 81 1020.0
20260830235146 84 172 0.0 0.0 0.00 0.00 0.00 79 1020.0
20260830234641 84 188 0.0 0.0 0.00 0.00 0.00 78 1020.0
20260830234136 85 219 0.0 0.0 0.00 0.00 0.00 76 1019.8
20260830233632 86 170 0.0 0.0 0.00 0.00 0.00 74 1019.7
20260830233127 86 172 0.0 0.0 0.00 0.00 0.00 74 1019.7
20260830232623 86 168 0.0 0.0 0.00 0.00 0.00 74 1019.8
20260830232119 86 184 0.0 0.0 0.00 0.00 0.00 74 1019.7
20260830231615 86 204 0.0 0.0 0.00 0.00 0.00 72 1019.4
20260830231114 86 231 0.0 0.0 0.00 0.00 0.00 72 1019.4
20260830230609 87 201 0.0 0.0 0.00 0.00 0.00 71 1019.7
20260830230104 87 158 0.0 0.0 0.00 0.00 0.00 71 1019.7
20260830225559 87 115 0.0 0.0 0.00 0.00 0.00 71 1019.6
20260830225059 87 182 0.0 0.0 0.00 0.00 0.00 74 1019.6
20260830224558 87 151 0.0 0.0 0.00 0.00 0.00 72 1019.4
20260830224055 87 158 0.0 0.0 0.00 0.00 0.00 73 1019.7
20260830223552 87 193 0.0 0.0 0.00 0.00 0.00 71 1019.5
20260830223051 87 226 0.0 0.0 0.00 0.00 0.00 71 1019.4
20260830222545 87 177 0.0 0.0 0.00 0.00 0.00 72 1019.7
20260830222041 87 212 0.0 0.0 0.00 0.00 0.00 73 1019.5
20260830221537 87 291 0.0 0.0 0.00 0.00 0.00 73 1019.7
20260830221033 87 238 0.0 0.0 0.00 0.00 0.00 78 1019.5
20260830220532 87 240 0.0 0.0 0.00 0.00 0.00 72 1019.5
20260830220031 87 215 0.0 0.0 0.00 0.00 0.00 77 1019.8
20260830215526 86 173 0.0 0.0 0.00 0.00 0.00 79 1019.7
20260830215020 85 205 0.0 0.0 0.00 0.00 0.00 81 1019.8
20260830214515 86 207 0.0 0.0 0.00 0.00 0.00 83 1019.4
20260830214010 87 165 0.0 0.0 0.00 0.00 0.00 79 1019.7
20260830213505 88 167 0.0 0.0 0.00 0.00 0.00 74 1019.7
20260830213000 88 163 0.0 0.0 0.00 0.00 0.00 73 1019.5
20260830212456 89 220 0.0 0.0 0.00 0.00 0.00 71 1019.6
20260830211955 89 220 0.0 0.0 0.00 0.00 0.00 69 1019.7
20260830211450 90 205 0.0 0.0 0.00 0.00 0.00 66 1019.5
20260830210945 90 160 0.0 0.0 0.00 0.00 0.00 65 1019.7
20260830210445 90 182 0.0 0.0 0.00 0.00 0.00 66 1019.8
20260830205937 90 194 0.0 0.0 0.00 0.00 0.00 65 1019.7
20260830205436 92 217 0.0 0.0 0.00 0.00 0.00 63 1019.8
20260830204932 91 232 0.0 0.0 0.00 0.00 0.00 63 1019.8
20260830204431 93 223 0.0 0.0 0.00 0.00 0.00 61 1019.8
20260830203926 91 229 0.0 0.0 0.00 0.00 0.00 62 1019.8
20260830203422 88 246 0.0 0.0 0.00 0.00 0.00 62 1019.8
20260830202921 89 225 0.0 0.0 0.00 0.00 0.00 71 1019.8
20260830202416 89 231 0.0 0.0 0.00 0.00 0.00 65 1019.9
20260830201912 89 211 0.0 0.0 0.00 0.00 0.00 64 1019.9
20260830201406 89 352 0.0 0.0 0.00 0.00 0.00 65 1020.0
20260830200902 89 248 0.0 0.0 0.00 0.00 0.00 65 1020.0
20260830200401 89 246 0.0 0.0 0.00 0.00 0.00 66 1020.2
20260830195857 89 193 0.0 0.0 0.00 0.00 0.00 66 1020.3
20260830195356 89 194 0.0 0.0 0.00 0.00 0.00 67 1020.3
20260830194854 89 217 0.0 0.0 0.00 0.00 0.00 66 1020.4
20260830194348 90 165 0.0 0.0 0.00 0.00 0.00 63 1020.4
20260830193843 90 202 0.0 0.0 0.00 0.00 0.00 64 1020.4
20260830193337 91 239 0.0 0.0 0.00 0.00 0.00 63 1020.5
20260830192833 92 174 0.0 0.0 0.00 0.00 0.00 61 1020.5
20260830192333 92 80 0.0 0.0 0.00 0.00 0.00 61 1020.5
20260830191829 91 219 0.0 0.0 0.00 0.00 0.00 64 1020.7
20260830191328 89 190 0.0 0.0 0.00 0.00 0.00 67 1020.7
20260830190824 87 256 0.0 0.0 0.00 0.00 0.00 75 1020.5
20260830190324 87 273 0.0 0.0 0.00 0.00 0.00 73 1020.9
20260830185823 87 226 0.0 0.0 0.00 0.00 0.00 76 1021.1
20260830185318 88 220 0.0 0.0 0.00 0.00 0.00 73 1020.9
20260830184813 89 213 0.0 0.0 0.00 0.00 0.00 70 1020.9
20260830184312 89 213 0.0 0.0 0.00 0.00 0.00 67 1021.1
20260830183808 89 95 0.0 0.0 0.00 0.00 0.00 66 1020.9
20260830183307 87 229 0.0 0.0 0.00 0.00 0.00 72 1021.0
20260830182803 87 225 0.0 0.0 0.00 0.00 0.00 72 1021.0
20260830182258 87 221 0.0 0.0 0.00 0.00 0.00 72 1021.1
20260830181755 87 217 0.0 0.0 0.00 0.00 0.00 71 1021.2
20260830181250 87 224 0.0 0.0 0.00 0.00 0.00 73 1021.4
20260830180748 87 211 0.0 0.0 0.00 0.00 0.00 71 1021.5
20260830180244 87 226 0.0 0.0 0.00 0.00 0.00 69 1021.4
20260830175737 87 41 0.0 0.0 0.00 0.00 0.00 69 1021.8
20260830175233 87 227 0.0 0.0 0.00 0.00 0.00 74 1021.8
20260830174727 87 251 0.0 0.0 0.00 0.00 0.00 70 1021.6
20260830174223 87 192 0.0 0.0 0.00 0.00 0.00 70 1021.5
20260830173722 87 243 0.0 0.0 0.00 0.00 0.00 70 1021.8
20260830173218 88 245 0.0 0.0 0.00 0.00 0.00 70 1022.0
20260830172714 89 154 0.0 0.0 0.00 0.00 0.00 68 1022.2
20260830172211 89 331 0.0 0.0 0.00 0.00 0.00 67 1021.9
20260830171706 89 114 0.0 0.0 0.00 0.00 0.00 69 1022.2
20260830171201 88 229 0.0 0.0 0.00 0.00 0.00 69 1022.1
20260830170655 88 200 0.0 0.0 0.00 0.00 0.00 69 1022.5
20260830170154 87 230 0.0 0.0 0.00 0.00 0.00 71 1022.4
20260830165649 88 138 0.0 0.0 0.00 0.00 0.00 68 1022.4
20260830165145 87 179 0.0 0.0 0.00 0.00 0.00 73 1022.7
20260830164641 87 189 0.0 0.0 0.00 0.00 0.00 73 1022.8
20260830164137 87 168 0.0 0.0 0.00 0.00 0.00 71 1022.9
20260830163633 87 203 0.0 0.0 0.00 0.00 0.00 72 1023.0
20260830163133 88 213 0.0 0.0 0.00 0.00 0.00 71 1023.0
20260830162628 89 161 0.0 0.0 0.00 0.00 0.00 69 1022.9
20260830162125 87 212 0.0 0.0 0.00 0.00 0.00 71 1022.9
20260830161624 89 129 0.0 0.0 0.00 0.00 0.00 70 1023.2
20260830161119 88 33 0.0 0.0 0.00 0.00 0.00 70 1023.2
20260830160615 88 56 0.0 0.0 0.00 0.00 0.00 70 1023.1
20260830160110 87 125 0.0 0.0 0.00 0.00 0.00 73 1023.2
20260830155606 89 154 0.0 0.0 0.00 0.00 0.00 71 1023.3
20260830155102 88 198 0.0 0.0 0.00 0.00 0.00 74 1023.5
20260830154557 87 356 0.0 0.0 0.00 0.00 0.00 75 1023.5
20260830154053 85 228 0.0 0.0 0.00 0.00 0.00 78 1023.6
20260830153549 85 98 0.0 0.0 0.00 0.00 0.00 78 1023.5
20260830153049 86 38 0.0 0.0 0.00 0.00 0.00 76 1023.4
20260830152543 85 156 0.0 0.0 0.00 0.00 0.00 77 1023.5
20260830152042 84 311 0.0 0.0 0.00 0.00 0.00 80 1023.6
20260830151542 85 175 0.0 0.0 0.00 0.00 0.00 79 1023.5
20260830151037 86 213 0.0 0.0 0.00 0.00 0.00 76 1023.5
20260830150536 85 155 0.0 0.0 0.00 0.00 0.00 78 1023.7
20260830150032 84 5 0.0 0.0 0.00 0.00 0.00 80 1023.5
20260830145531 85 168 0.0 0.0 0.00 0.00 0.00 79 1023.6
20260830145027 84 165 0.0 0.0 0.00 0.00 0.00 78 1023.7
20260830144522 85 180 0.0 0.0 0.00 0.00 0.00 79 1023.5
20260830144018 84 269 0.0 0.0 0.00 0.00 0.00 81 1023.6
20260830143513 82 355 0.0 0.0 0.00 0.00 0.00 83 1023.4
20260830143011 81 233 0.0 0.0 0.00 0.00 0.00 86 1023.5
20260830142507 82 130 0.0 0.0 0.00 0.00 0.00 85 1023.8
20260830142002 83 196 0.0 0.0 0.00 0.00 0.00 83 1023.6
20260830141457 81 95 0.0 0.0 0.00 0.00 0.00 86 1023.4
20260830140952 81 24 0.0 0.0 0.00 0.00 0.00 87 1023.4
20260830140447 81 237 0.0 0.0 0.00 0.00 0.00 88 1023.7
20260830135946 81 244 0.0 0.0 0.00 0.00 0.00 88 1023.6
20260830135442 80 232 0.0 0.0 0.00 0.00 0.00 89 1023.7
20260830134937 80 213 0.0 0.0 0.00 0.00 0.00 90 1023.5
20260830134433 80 241 0.0 0.0 0.00 0.00 0.00 90 1023.5
20260830133928 80 261 0.0 0.0 0.00 0.00 0.00 90 1023.6
20260830133424 81 174 0.0 0.0 0.00 0.00 0.00 89 1023.5
20260830132919 81 170 0.0 0.0 0.00 0.00 0.00 89 1023.6
20260830132415 80 221 0.0 0.0 0.00 0.00 0.00 91 1023.5
20260830131914 78 257 0.0 0.0 0.00 0.00 0.00 94 1023.3
20260830131413 78 264 0.0 0.0 0.00 0.00 0.00 95 1023.2
20260830130908 78 177 0.0 0.0 0.00 0.00 0.00 95 1023.4
20260830130404 78 194 0.0 0.0 0.00 0.00 0.00 96 1023.3
20260830125902 78 202 0.0 0.0 0.00 0.00 0.00 96 1023.5
20260830125359 77 87 0.0 0.0 0.00 0.00 0.00 96 1023.3
20260830124856 77 184 0.0 0.0 0.00 0.00 0.00 98 1023.4
20260830124351 76 239 0.0 0.0 0.00 0.00 0.00 99 1023.3
20260830123848 76 102 0.0 0.0 0.00 0.00 0.00 99 1023.3
20260830123344 75 169 0.0 0.0 0.00 0.00 0.00 99 1023.1
20260830122841 75 231 0.0 0.0 0.00 0.00 0.00 99 1023.1
20260830122336 75 179 0.0 0.0 0.00 0.00 0.00 99 1023.1
20260830121832 75 225 0.0 0.0 0.00 0.00 0.00 99 1023.3
20260830121331 75 176 0.0 0.0 0.00 0.00 0.00 99 1023.5
20260830120826 74 238 0.0 0.0 0.00 0.00 0.00 99 1023.3
20260830120322 74 223 0.0 0.0 0.00 0.00 0.00 99 1023.2
20260830115818 74 223 0.0 0.0 0.00 0.00 0.00 99 1023.3
20260830115314 74 206 0.0 0.0 0.00 0.00 0.00 99 1023.1
20260830114809 74 232 0.0 0.0 0.00 0.00 0.00 99 1023.1
20260830114306 73 236 0.0 0.0 0.00 0.00 0.00 99 1022.9
20260830113800 73 236 0.0 0.0 0.00 0.00 0.00 99 1023.0
20260830113255 73 229 0.0 0.0 0.00 0.00 0.00 99 1022.8
20260830112751 73 243 0.0 0.0 0.00 0.00 0.00 99 1022.7
20260830112247 73 237 0.0 0.0 0.00 0.00 0.00 99 1022.7
20260830111743 73 238 0.0 0.0 0.00 0.00 0.00 99 1022.5
20260830111238 73 236 0.0 0.0 0.00 0.00 0.00 99 1022.5
20260830110738 73 236 0.0 0.0 0.00 0.00 0.00 99 1022.6
20260830110235 73 237 0.0 0.0 0.00 0.00 0.00 99 1022.5
20260830105733 73 215 0.0 0.0 0.00 0.00 0.00 99 1022.2
20260830105230 73 177 0.0 0.0 0.00 0.00 0.00 99 1022.2
20260830104726 73 231 0.0 0.0 0.00 0.00 0.00 99 1022.1
20260830104223 73 215 0.0 0.0 0.00 0.00 0.00 99 1022.1
20260830103722 73 235 0.0 0.0 0.00 0.00 0.00 99 1022.1
20260830103218 73 238 0.0 0.0 0.00 0.00 0.00 99 1022.0
20260830102715 73 215 0.0 0.0 0.00 0.00 0.00 99 1022.0
20260830102211 73 228 0.0 0.0 0.00 0.00 0.00 99 1021.9
20260830101708 73 229 0.0 0.0 0.00 0.00 0.00 99 1021.8
20260830101202 73 200 0.0 0.0 0.00 0.00 0.00 99 1021.6
20260830100657 73 191 0.0 0.0 0.00 0.00 0.00 99 1021.6
20260830100157 73 222 0.0 0.0 0.00 0.00 0.00 99 1021.3
20260830095655 73 230 0.0 0.0 0.00 0.00 0.00 99 1021.3
20260830095152 73 240 0.0 0.0 0.00 0.00 0.00 99 1021.3
20260830094648 73 228 0.0 0.0 0.00 0.00 0.00 99 1021.2
20260830094143 73 219 0.0 0.0 0.00 0.00 0.00 99 1021.3
20260830093638 73 234 0.0 0.0 0.00 0.00 0.00 99 1021.2
20260830093135 73 237 0.0 0.0 0.00 0.00 0.00 99 1021.4
20260830092635 73 192 0.0 0.0 0.00 0.00 0.00 99 1021.4
20260830092132 73 227 0.0 0.0 0.00 0.00 0.00 99 1021.4
20260830091626 73 204 0.0 0.0 0.00 0.00 0.00 99 1021.3
20260830091126 73 204 0.0 0.0 0.00 0.00 0.00 99 1021.2
20260830090621 73 222 0.0 0.0 0.00 0.00 0.00 99 1021.4
20260830090116 73 229 0.0 0.0 0.00 0.00 0.00 99 1021.2
20260830085615 73 224 0.0 0.0 0.00 0.00 0.00 99 1021.1
20260830085112 73 225 0.0 0.0 0.00 0.00 0.00 99 1021.1
20260830084607 73 225 0.0 0.0 0.00 0.00 0.00 99 1021.2
20260830084102 73 225 0.0 0.0 0.00 0.00 0.00 99 1020.9
20260830083557 73 225 0.0 0.0 0.00 0.00 0.00 99 1021.3
20260830083057 73 225 0.0 0.0 0.00 0.00 0.00 99 1021.3
20260830082552 72 225 0.0 0.0 0.00 0.00 0.00 99 1021.6
20260830082047 72 226 0.0 0.0 0.00 0.00 0.00 99 1021.4
20260830081543 72 225 0.0 0.0 0.00 0.00 0.00 99 1021.5
20260830081042 73 225 0.0 0.0 0.00 0.00 0.00 99 1021.6
20260830080537 73 225 0.0 0.0 0.00 0.00 0.00 99 1021.5
20260830080032 73 224 0.0 0.0 0.00 0.00 0.00 99 1021.3
20260830075527 73 218 0.0 0.0 0.00 0.00 0.00 99 1021.5
20260830075022 73 228 0.0 0.0 0.00 0.00 0.00 99 1021.0
20260830074518 73 236 0.0 0.0 0.00 0.00 0.00 99 1021.4
20260830074013 73 233 0.0 0.0 0.00 0.00 0.00 99 1021.4
20260830073509 73 201 0.0 0.0 0.00 0.00 0.00 99 1021.3